Lid_Strength_Index
2 2 3 3 3 3 3 3 3 3 3 5 7 9 9 9 10 11 10 8 8 8 8 7 6 5 6 7 7 8 8 8 9 8 6 6 6 6 5 5 4 4 4
2 3 3 3 3 4 4 3 4 6 7 9 10 10 10 11 11 10 9 8 9 9 9 7 6 6 8 8 8 9 9 9 9 10 9 8 8 7 7 7 5 4 5
3 4 3 4 5 6 7 7 8 8 9 10 11 11 11 11 10 9 9 9 9 9 8 7 8 8 9 8 9 9 9 9 10 10 10 9 8 8 8 8 7 7 6
4 5 6 7 8 9 9 9 10 11 12 12 11 12 11 10 9 9 9 9 9 8 7 7 7 7 8 9 9 10 10 10 10 10 10 9 9 9 9 9 8 7 7
6 7 8 9 9 9 10 11 11 11 12 13 13 12 11 10 9 9 9 9 8 8 7 7 6 6 6 7 8 10 10 11 11 10 10 10 10 10 9 9 8 7 7
8 9 9 9 10 10 10 11 12 12 13 13 13 13 11 10 9 8 9 9 9 9 8 9 8 7 8 7 6 6 7 10 11 11 11 10 10 8 8 9 8 8 9
9 9 9 10 10 9 10 12 13 14 13 14 13 12 12 11 10 10 9 10 10 10 10 10 9 8 9 9 8 8 8 7 7 8 9 8 8 7 7 9 10 10 10
9 9 9 9 10 11 12 13 13 13 14 13 13 12 12 11 11 11 10 11 11 10 10 10 11 11 10 10 10 10 10 9 8 8 7 7 9 8 9 8 9 9 8
9 9 8 10 10 11 12 11 12 13 13 13 13 13 13 13 11 11 11 12 11 10 10 10 10 11 10 10 10 11 11 11 8 8 8 9 9 9 8 9 10 11 11
10 10 9 9 9 10 11 11 11 11 12 12 13 13 12 14 11 12 12 12 12 11 11 10 9 10 10 10 12 12 14 13 12 12 11 11 10 10 9 10 10 12 11
9 8 9 10 10 11 11 11 11 11 12 13 14 14 14 14 13 12 10 12 12 11 10 10 10 10 11 11 11 13 13 12 12 13 13 12 12 12 11 10 10 11 12
9 10 10 10 10 10 10 11 10 11 12 14 15 16 16 15 12 11 11 10 9 10 10 10 10 11 12 12 12 12 12 12 14 14 14 12 11 11 10 10 10 10 10
10 11 11 11 11 11 11 11 11 12 13 14 15 16 16 15 14 11 11 11 10 10 10 10 11 11 12 13 12 12 13 15 15 13 13 12 11 11 10 11 10 10 10
12 13 13 14 14 14 14 14 12 12 13 13 16 16 16 14 14 14 13 12 10 11 11 12 11 12 12 13 14 14 15 14 13 13 12 12 11 11 11 10 11 11 11
13 14 14 15 15 16 15 16 15 16 14 15 16 16 15 14 14 13 13 13 14 12 13 14 15 16 16 16 16 15 15 13 13 13 13 13 12 12 11 10 10 10 11
13 14 15 16 16 16 16 16 14 14 14 14 13 13 14 13 12 12 12 12 13 12 15 16 16 17 17 17 17 17 16 14 14 13 14 14 13 13 12 11 10 10 10
14 15 15 16 16 16 17 16 17 15 13 13 13 12 12 12 12 12 13 13 14 14 16 16 17 17 17 17 17 18 17 17 15 15 15 15 14 13 12 12 11 10 9
13 13 15 15 16 16 16 16 16 17 17 16 13 13 12 12 12 13 13 14 16 16 17 17 17 17 17 17 18 18 17 17 17 17 16 16 15 15 14 12 11 11 10
12 13 13 14 14 15 15 16 16 16 15 15 14 13 13 13 13 13 14 16 17 18 17 17 17 18 18 18 18 18 18 18 18 17 17 17 16 16 15 14 12 11 11
11 11 11 11 12 12 11 12 14 14 14 14 14 15 15 15 15 15 16 17 17 18 18 18 18 18 18 18 19 19 19 18 18 18 18 17 16 16 15 14 13 12 11
10 10 12 9 10 10 11 11 12 14 14 14 15 15 15 15 16 16 16 17 18 18 19 19 20 19 19 19 19 19 19 19 19 18 18 18 17 16 15 14 14 12 12
10 10 10 10 10 10 12 13 14 14 15 16 16 15 16 15 15 16 17 17 17 18 19 19 20 19 19 19 19 18 19 19 18 18 18 18 17 16 15 15 14 13 13
10 9 9 9 10 12 12 14 14 15 15 15 15 15 15 15 16 16 16 17 17 18 19 19 20 20 19 17 17 18 19 19 18 18 18 18 17 16 16 15 14 14 14
9 8 9 10 11 12 12 13 14 14 14 14 15 15 16 16 15 16 16 17 17 17 18 19 19 19 18 17 17 17 17 17 18 17 17 17 17 16 16 16 15 14 14
9 9 10 11 12 13 13 13 14 14 14 14 14 15 16 15 15 15 16 16 17 17 18 19 19 18 17 17 17 16 16 17 17 17 17 17 17 16 16 16 15 15 14
10 9 11 12 13 13 13 13 13 14 14 14 15 16 16 15 15 15 16 16 16 16 17 18 18 17 17 16 16 16 16 17 17 17 17 17 17 17 16 16 15 16 14